Regional Weather Roundup
Issued by NWS Upton, NY

Current Version | Previous Version | Text Only | Print | Product List | Glossary On
Versions: 1 2 3 4 5 6 7 8 9 10 11 12 13 14 15 16 17 18 19 20 21 22 23 24 25 26 27 28 29 30 31 32 33 34 35 36 37 38 39 40 41 42 43 44 45 46 47 48 49 50
000 ASUS41 KOKX 251509 RWROKX REGIONAL WEATHER ROUNDUP NATIONAL WEATHER SERVICE NEW YORK NY 1100 AM EDT THU MAY 25 2017 NOTE: "FAIR" INDICATES FEW OR NO CLOUDS BELOW 12,000 FEET WITH NO SIGNIFICANT WEATHER AND/OR OBSTRUCTIONS TO VISIBILITY. NYZ071-072-176-178-NJZ106-104-251600- NEW YORK CITY METRO AREA CITY SKY/WX TMP DP RH WIND PRES REMARKS Central Park LGT RAIN 57 56 96 VRB5 29.67R FOG Wall St Helipt CLOUDY 57 55 94 NE17 29.62F Bronx Bot Gard N/A 55 54 94 NE17 29.67R LaGuardia APRT LGT RAIN 58 56 93 E13 29.64R FOG Kennedy INTL LGT RAIN 57 57 100 E20G28 29.64F FOG Breezy Point N/A 54 N/A N/A E22G31 N/A Newark/Liberty LGT RAIN 57 56 96 NE13 29.62F FOG Teterboro LGT RAIN 57 55 93 E9G23 29.63S FOG $$ NYZ177-179-078>081-251600- LONG ISLAND NEW YORK CITY SKY/WX TMP DP RH WIND PRES REMARKS Jones Beach N/A 54 N/A N/A E24G33 N/A Matinecock PT NOT AVBL Farmingdale LGT RAIN 56 55 97 E16 29.65S FOG MacArthur/ISP LGT RAIN 56 55 97 E17 29.66F FOG Shirley LGT RAIN 55 55 100 E9G17 29.68F FOG Mt Sinai Harb N/A 55 N/A N/A E14G21 N/A Westhampton LGT RAIN 54 52 93 E17G25 29.69S FOG East Hampton LGT RAIN 54 52 95 E12G26 29.70F Montauk N/A 55 54 96 E10G23 29.73S $$ NYZ052-065-067-251600- HUDSON VALLEY CITY SKY/WX TMP DP RH WIND PRES REMARKS White Plains RAIN 56 53 90 E20G31 29.65F FOG Larchmont Harb N/A 55 N/A N/A NE29G35 N/A Croton O-T Hud N/A 57 N/A N/A E6G14 N/A Newburgh LGT RAIN 55 55 100 E12G21 29.66F FOG Montgomery HVY RAIN 57 54 89 NE9 29.65F FOG Poughkeepsie LGT RAIN 57 53 86 NE8 29.65F FOG Albany LGT RAIN 62 48 60 CALM 29.73F $$ NJZ001-105-106-008-010-013-015-019>022-104-251600- NEW JERSEY CITY SKY/WX TMP DP RH WIND PRES REMARKS Newark/Liberty LGT RAIN 57 56 96 NE13 29.62F FOG Teterboro LGT RAIN 57 55 93 E9G23 29.63S FOG Caldwell LGT RAIN 58 55 90 E14G21 29.63F FOG Somerville LGT RAIN 58 56 93 VRB3 29.58F FOG Linden DRIZZLE 57 55 92 E13G18 29.62F Perth Amboy N/A 55 N/A N/A E18G28 N/A Sussex RAIN 56 55 97 NE9 29.63F FOG Andover N/A 56 53 90 NE5 29.62S Trenton RAIN 56 55 97 E15 29.57S FOG Millville CLOUDY 62 62 100 E9 29.53S FOG Atlantic City CLOUDY 60 59 96 E13 29.55F Wrightstown CLOUDY 56 55 96 E12G20 29.55F Toms River RAIN 56 56 100 VRB7 29.60F Belmar LGT RAIN 55 54 96 E14 29.62F FOG $$ PAZ047>061-062-071-251600- EASTERN PENNSYLVANIA CITY SKY/WX TMP DP RH WIND PRES REMARKS Philadelphia LGT RAIN 58 56 93 E14 29.55F Allentown HVY RAIN 58 54 86 NE9 29.57F Scranton LGT RAIN 57 54 89 MISG 29.56F FOG $$ CTZ002-004>006-009-010-012-RIZ004-006-007-MAZ004-011-015-251600- SOUTHERN NEW ENGLAND IN CT CITY SKY/WX TMP DP RH WIND PRES REMARKS Bradley INTL CLOUDY 57 54 89 NE8 29.76S Hartford LGT RAIN 58 55 90 E7 29.73F Danbury LGT RAIN 55 55 100 E13G22 29.68F FOG Wtrbury/Oxford DRIZZLE 55 52 88 E8G17 29.71F FOG Bridgeport LGT RAIN 58 54 86 E22G31 29.68F FOG Meriden LGT RAIN 57 55 93 E10G16 29.71F New Haven CLOUDY 57 56 96 E9 29.70F FOG Chester CLOUDY 57 55 94 E12 29.71F Groton LGT RAIN 58 56 93 E16G25 29.73R FOG Wilimantic CLOUDY 59 56 89 E12 29.75F IN RI CITY SKY/WX TMP DP RH WIND PRES REMARKS Providence LGT RAIN 56 56 100 NE12 29.78F Block Island CLOUDY 54 53 97 E20G28 29.73F FOG Westerly CLOUDY 59 56 89 E17G28 29.74S IN MA CITY SKY/WX TMP DP RH WIND PRES REMARKS Boston LGT RAIN 53 51 93 E22G28 29.83F Worcester LGT RAIN 51 48 89 E17G28 29.79F Westfield CLOUDY 56 52 86 NE8 29.78S Provincetown LGT RAIN 52 50 93 E20G26 29.82F Nantucket LGT RAIN 53 51 93 E18G24 29.76F $$ ANZ330-335-338-340-345-350-353-355-251600- COASTAL MARINE OBSERVATIONS STATION/POSITION TIME SKY/WX TEMP WIND PRES VSBY WAVE AIR SEA DIR/SP/G HT/PER (UTC) (F) (DEG/KT/KT) (MB) (MI) (FT/S) NY HARB ENTRANCE 1350 55 56 80/ 21/ 27 1003.0 7/ 7 20 S FIRE ISLAND 1450 54 54 90/ 21/ 25 1002.6 6/ 6 GREAT SOUTH BAY 1430 56 63 70/ 23/ 29 N/A 23 SSW MONTAUK P 1350 53 54 1005.6 6/ 6 15 E BARNEGAT LI 1430 56 N/A 6/ 6 HUDSON CANYON 1350 55 52 70/ 12/ 14 1003.1 5/ 6 KINGS POINT 1442 57 57 120/ 4/ 7 1003.8 EXECUTION ROCKS 1430 56 N/A CENTRAL LI SOUND 1400 55 90/ 21/ 27 N/A 3/ 4 EASTERN LI SOUND NOT AVBL ROBBINS REEF 1442 57 80/ 15/ 21 1003.9 $$ >>>>>>>>>>>>>>>>>>>>>>>>>>>> KEY <<<<<<<<<<<<<<<<<<<<<<<<<<< > < > SKY/WX - Sky Condition/Present Weather < > TMP - Temperature in Fahrenheit < > DP - Dew Point in Fahrenheit < > RH - Relative Humidity in Percent < > WIND - Direction (from) and Speed in MPH < > PRES - Mean Sea Level Pressure (inches of Hg) < > WCI - Wind Chill Index < > VSB - VISIBILITY IN MILES < > HX - HEAT INDEX < > TC - TEMPERATURE IN CELSIUS < > VRB - VARIABLE WIND DIRECTION < > < >>>>>>>>>>>>>>>>>>>>>>>>>>>> KEY <<<<<<<<<<<<<<<<<<<<<<<<<<<

USA.gov is the U.S. government's official web portal to all federal, state and local government web resources and services.